• Join FlightAware (Why Join?)
  • Login
  • US Flag 
10:07AM EST


 

Airport Tracker/Info


-or-


 

Live Flight TrackerFlight Track Log ✈ N900TG ✈ 27-Oct-2013 ✈ 64OG - KUAO

Flight Track Log - Related Links

Times and Time Zones

All times are in EDT time to prevent confusion due to time zone crossing. See the N900TG flight status page for this flight to view local times or setup timezone preferences in your user account.

Time Position Orientation Groundspeed Altitude Reporting Facility
EDT Latitude Longitude Course Direction KTS MPH feet Rate Location/Type
12:01PM 44.5139 -119.9925 285° West 219 252 11,000  Level Seattle Center
12:02PM 44.5331 -120.0942 285° West 259 298 14,400 3,360 Climbing Seattle Center
12:03PM 44.5528 -120.2056 284° West 288 331 17,800 2,700 Climbing Seattle Center
12:04PM 44.5733 -120.3225 284° West 304 350 19,900 1,080 Climbing Seattle Center
12:05PM 44.5981 -120.4583 284° West 359 413 20,000  Climbing Seattle Center
12:06PM 44.6236 -120.5992 284° West 373 429 20,000  Level Seattle Center
12:07PM 44.6500 -120.7411 285° West 366 421 20,000  Level Seattle Center
12:08PM 44.6736 -120.8781 284° West 362 417 20,000  Level Seattle Center
12:09PM 44.6975 -121.0111 284° West 356 410 20,000  Level Seattle Center
12:10PM 44.7194 -121.1342 284° West 335 386 20,000  Level Seattle Center
12:11PM 44.7403 -121.2547 284° West 322 371 20,100  Climbing Seattle Center
12:12PM 44.7625 -121.3819 284° West 330 380 20,000 -60 Descending Seattle Center
12:13PM 44.7839 -121.5103 283° West 336 387 20,000 -60 Level Seattle Center
12:14PM 44.8064 -121.6383 284° West 337 388 19,900 -900 Descending Seattle Center
12:15PM 44.8278 -121.7647 283° West 334 384 18,200 -1,740 Descending Seattle Center
12:16PM 44.8489 -121.8903 283° West 331 381 16,500 -1,860 Descending Seattle Center
12:17PM 44.9081 -122.0097 305° West 341 392 14,500 -1,860 Descending Seattle Center
12:18PM 44.9506 -122.0731 313° West 326 375 13,500 -1,620 Descending Seattle Center
12:18PM 44.9733 -122.0961 324° Northwest 328 377 12,900 -1,740 Descending Seattle Center
12:19PM 44.9947 -122.1283 313° West 322 371 12,300 -1,800 Descending Seattle Center
12:19PM 45.0389 -122.1783 321° Northwest 321 369 11,100 -1,800 Descending Seattle Center
12:20PM 45.0592 -122.2089 313° West 311 358 10,500 -1,140 Descending Seattle Center
12:20PM 45.1003 -122.2569 320° Northwest 309 356 10,000 -1,080 Descending Seattle Center
12:21PM 45.1236 -122.2894 316° Northwest 248 285 9,300 -1,500 Descending Seattle Center
12:21PM 45.1514 -122.3211 321° Northwest 266 306 8,500 -1,500 Descending Seattle Center
12:22PM 45.1739 -122.3547 314° West 244 281 7,800 -1,500 Descending Seattle Center
12:22PM 45.1989 -122.3822 322° Northwest 240 276 7,000 -1,080 Descending Seattle Center
12:23PM 45.2261 -122.4192 316° Northwest 227 261 6,600 -1,380 Descending Seattle Center
12:23PM 45.2436 -122.4400 320° Northwest 225 259 5,600 -2,220 Descending Seattle Center
12:24PM 45.2739 -122.4825 315° West 219 252 4,400 -1,800 Descending Seattle Center
12:24PM 45.2900 -122.5006 322° Northwest 225 259 3,800 -1,140 Descending Seattle Center
12:25PM 45.3203 -122.5403 317° Northwest 222 255 3,300 -900 Descending Seattle Center
12:25PM 45.3350 -122.5578 320° Northwest 222 255 2,900 -240 Descending Seattle Center
12:26PM 45.3606 -122.5792 330° Northwest 191 220 3,100  Climbing Seattle Center
12:27PM 45.3931 -122.5833 355° North 194 223 2,900 -120 Descending Seattle Center
12:27PM 45.4139 -122.5853 356° North 188 216 3,000  Climbing Seattle Center
12:28PM 45.4464 -122.5889 356° North 194 223 2,900 60 Descending Seattle Center
12:28PM 45.4697 -122.5931 353° North 205 236 3,100 -120 Climbing Seattle Center
12:29PM 45.4942 -122.6208 321° Northwest 216 249 2,800  Descending Seattle Center
12:29PM 45.4911 -122.6461 260° West 177 204 3,100 60 Climbing Seattle Center
12:30PM 45.4825 -122.6844 252° West 175 201 2,900 -120 Descending Seattle Center
12:30PM 45.4733 -122.7086 242° Southwest 161 185 3,000 -300 Climbing Seattle Center
12:31PM 45.4589 -122.7375 235° Southwest 167 192 2,600 -300 Descending Seattle Center
12:31PM 45.4361 -122.7392 183° South 180 207 2,700 -120 Climbing Seattle Center
12:32PM 45.4100 -122.7425 185° South 177 204 2,500 -120 Descending Seattle Center
12:32PM 45.3897 -122.7456 186° South 167 192 2,600 -240 Climbing Seattle Center
12:33PM 45.3661 -122.7483 185° South 163 188 2,300 -540 Descending Seattle Center
12:33PM 45.3481 -122.7533 191° South 152 175 2,100 -840 Descending Seattle Center
12:34PM 45.3275 -122.7564 186° South 146 168 1,500 -720 Descending Seattle Center
12:34PM 45.3142 -122.7578 184° South 173 199 1,400 -540 Descending Seattle Center
12:35PM 45.2978 -122.7597 185° South 124 143 1,000 -540 Descending Seattle Center
12:35PM 45.2872 -122.7625 190° South 121 139 900 -420 Descending Seattle Center
12:36PM 45.2669 -122.7653 186° South 114 131 600 -480 Descending Seattle Center